Regional Weather Roundup
Issued by NWS

Home | Current Version | Previous Version | Graphics & Text | Print | Product List | Glossary On
Versions: 1 2 3 4 5 6 7 8 9 10 11 12 13 14 15 16 17 18 19 20 21 22 23 24 25 26 27 28 29 30 31 32 33 34 35 36 37 38 39 40 41 42 43 44 45 46 47 48 49 50
000
ASUS43 KLSX 061857
RWRMO

WEATHER SUMMARY FOR MISSOURI
NATIONAL WEATHER SERVICE SPRINGFIELD MO
200 PM CDT FRI MAY 06 2016

NOTE: "FAIR" INDICATES FEW OR NO CLOUDS BELOW 12,000 FEET WITH NO
       SIGNIFICANT WEATHER AND/OR OBSTRUCTIONS TO VISIBILITY.
       CURRENT SKY AND/OR WEATHER CONDITIONS ARE NOT AVAILABLE FOR
       CHILLICOTHE AND FARMINGTON.

MOZ001>031-035>038-043-044-053-054-062000-
...NORTHERN AND WESTERN MISSOURI...

CITY           SKY/WX    TMP DP  RH WIND       PRES   REMARKS
KANSAS CTY INT SUNNY     79  51  37 SW10      30.04F
LEE`S SUMMIT   SUNNY     79  46  31 SW13      30.06F
ST JOSEPH      SUNNY     82  48  30 SW15      30.02F
CHILLICOTHE      N/A     80  50  34 SW7       30.03F

$$
MOZ066>068-077>081-088>096-101>105-062000-
...SOUTHWEST MISSOURI...

CITY           SKY/WX    TMP DP  RH WIND       PRES   REMARKS
SPRINGFIELD    SUNNY     75  41  29 CALM      30.09F
JOPLIN         SUNNY     75  48  38 S6        30.10F
BRANSON        SUNNY     73  39  29 CALM      30.12F

$$
MOZ032>034-039>042-045>050-055>058-069>072-062000-
...CENTRAL MISSOURI...

CITY           SKY/WX    TMP DP  RH WIND       PRES   REMARKS
COLUMBIA       NOT AVBL
JEFFERSON CITY SUNNY     76  41  28 W5        30.05F
ROLLA          SUNNY     74  43  32 VRB3      30.06F
SEDALIA        SUNNY     79  46  31 W9        30.08F
WARRENSBURG    SUNNY     75  43  31 SW8       30.07F

$$
MOZ051-052-059>065-062000-
...EAST CENTRAL MISSOURI...

CITY           SKY/WX    TMP DP  RH WIND       PRES   REMARKS
ST LOUIS INTL  SUNNY     77  41  27 VRB6      30.03F

$$
MOZ072>076-082>087-097>100-106>115-062000-
...SOUTH CENTRAL AND SOUTHEAST MISSOURI...

CITY           SKY/WX    TMP DP  RH WIND       PRES   REMARKS
CAPE GIRARDEAU SUNNY     73  41  31 NW8G17    30.05F
POPLAR BLUFF   SUNNY     74  40  29 N9        30.06F
WEST PLAINS    SUNNY     74  43  32 VRB3      30.10F

$$


USA.gov is the U.S. government's official web portal to all federal, state and local government web resources and services.